This is the latest recevied weather packets stored in our database for station/object K5MGY. If no packets are shown the sender has not sent any weather packets the latest 10 day(s).
| Time | Temp. | Humidity | Pressure | Rain* | Wind** | Luminosity | Snow |
|---|---|---|---|---|---|---|---|
| 1777561004 | 16.67° C | 85% | 1039.7 hPa | 0 mm | - | 17 W/m² | - |
| 1777560699 | 16.67° C | 85% | 1039.7 hPa | 0 mm | - | 27 W/m² | - |
| 1777560397 | 16.67° C | 84% | 1039.4 hPa | 0 mm | - | 34 W/m² | - |
| 1777560095 | 16.67° C | 84% | 1039.1 hPa | 0 mm | - | 37 W/m² | - |
| 1777559791 | 16.67° C | 84% | 1039 hPa | 0 mm | - | 39 W/m² | - |
| 1777559488 | 16.67° C | 84% | 1039 hPa | 0 mm | - | 39 W/m² | - |
| 1777559185 | 16.67° C | 84% | 1038.8 hPa | 0 mm | - | 41 W/m² | - |
| 1777558885 | 16.67° C | 84% | 1039.1 hPa | 0 mm | - | 32 W/m² | - |
| 1777558581 | 16.67° C | 84% | 1038.9 hPa | 0 mm | - | 31 W/m² | - |
| 1777558276 | 16.67° C | 84% | 1039.2 hPa | 0 mm | - | 31 W/m² | - |
| 1777557973 | 16.67° C | 84% | 1039 hPa | 0 mm | - | 36 W/m² | - |
| 1777557670 | 16.67° C | 84% | 1038.8 hPa | 0 mm | - | 30 W/m² | - |
| 1777557366 | 16.67° C | 83% | 1038.7 hPa | 0 mm | - | 24 W/m² | - |
| 1777557063 | 16.67° C | 83% | 1038.2 hPa | 0 mm | - | 35 W/m² | - |
| 1777556758 | 16.67° C | 83% | 1038.2 hPa | 0 mm | - | 52 W/m² | - |
| 1777556455 | 16.67° C | 83% | 1038.2 hPa | 0 mm | - | 41 W/m² | - |
| 1777556155 | 16.67° C | 84% | 1038.1 hPa | 0 mm | - | 42 W/m² | - |
| 1777555851 | 16.67° C | 84% | 1038.1 hPa | 0 mm | - | 34 W/m² | - |
| 1777555546 | 16.67° C | 84% | 1038.3 hPa | 0 mm | - | 30 W/m² | - |
| 1777555243 | 16.67° C | 84% | 1038.3 hPa | 0 mm | - | 37 W/m² | - |
| 1777554940 | 16.67° C | 84% | 1038.3 hPa | 0 mm | - | 42 W/m² | - |
| 1777554637 | 16.67° C | 84% | 1038.2 hPa | 0 mm | - | 45 W/m² | - |
| 1777554334 | 16.11° C | 84% | 1037.6 hPa | 0 mm | - | 37 W/m² | - |
| 1777554031 | 16.11° C | 85% | 1038.2 hPa | 0 mm | - | 39 W/m² | - |
| 1777553727 | 16.11° C | 85% | 1038.1 hPa | 0 mm | - | 39 W/m² | - |
* Rain latest hour (hover to see other rain measurements)
** Current wind speed in m/s (hover to see current wind gust speed)